STARLINK-33848

Satellite information

Favourite Embed

Satellite Type and Status

PAYLOADIN ORBIT

Key statistics

Satellite STARLINK-33848 at a glance.

Uptime

229

Days in orbit

Revolutions

≈ 15.3

Per day

Orbit

LEO

Low Earth Orbit

Inclination

53.2

Latest

Satellite identification and parameters

Extended collection of information and parameters for STARLINK-33848.

Object identification

Identified? True

Debris? False

Object name: STARLINK-33848

International designator: 2025-087J

Object number (NORAD): 63705

Object ID (CCSDS): 63705

Country: UNITED STATES OF AMERICA (US)

Current information (Y/N): Y

RCS size: LARGE

Orbital parameters

Period: 94.109 minutes

Inclination: 53.1609 deg

SMA: 6853.517 km

Apoapsis: 476.615 km

Periapsis: 474.15 km

RAAN: 265.8769 deg

Eccentricy: 0.00017985

Argument of periapsis: 60.6994 deg

Mean anomaly: 299.4187 deg

Mean motion: 15.30144618 rev/day

Mean motion (dot): 0.00059732 rev/day2

B* drag term: 0.0020161408 1/REarth

Two-line elements (TLE)

Creation date: Dec. 12, 2025, 10:14 a.m.

Reference frame: TEME

Reference center: EARTH

Epoch: Dec. 12, 2025, 4:19 a.m. UTC

TLE line 0: 0 STARLINK-33848

TLE line 1: 1 63705U 25087J 25346.17991603 .00059732 00000-0 20161-2 0 9997

TLE line 2: 2 63705 53.1609 265.8769 0001798 60.6994 299.4187 15.30144618 35796

Live tracking on map

Real-time ground track for satellite STARLINK-33848.

In-orbit conjunctions

There are no conjunctions computed for STARLINK-33848, at the moment. Check back to stay up to date, as we update our databases every day.

Go to all conjunctions

Associated space launch

A batch of 27 satellites for the Starlink mega-constellation - SpaceX's project for space-based Internet communication system.

STARLINK-33848 was lifted into orbit during the mission ‘Falcon 9 Block 5 | Starlink Group 11-9’, on board a Falcon 9 space rocket.

The launch took place on April 28, 2025, 8:42 p.m. from Space Launch Complex 4E.

For more information about the launch, click the button.

Launch to space Falcon 9 Block 5 | Starlink Group 11-9
Falcon 9 Block 5 | Starlink Group 11-9

Agency: SpaceX

Status: Launch Successful

Launch date: April 28, 2025, 8:42 p.m. UTC

Rocket: Falcon 9

Launch pad: Space Launch Complex 4E

Location: Vandenberg SFB, CA, USA

...

Latest news about this satellite

News about space launch
Live coverage: SpaceX to launch 27 Starlink satellites on Falcon 9 rocket from Vandenberg SFB

The Starlink 11-9 mission represents the 50th orbital launch from U.S. soil in 2025, of which 48 are SpaceX Falcon 9 rockets. Liftoff from pad 4 East at Vandenberg Space Force Base is targeting Sunday, April 27, at 3:41 p.m. PDT (6:41 p.m. EDT, 2241 UTC).

News about space launch
Launch Roundup: China to launch crew, Falcon 9 to launch Bandwagon rideshare

This week, China will launch three taikonauts to the Tiangong space station. SpaceX’s Falcon 9… The post Launch Roundup: China to launch crew, Falcon 9 to launch Bandwagon rideshare appeared first on NASASpaceFlight.com.


Newsletter sign-up

Weekly statistics, charts and insights to help you stay on top of the space industry.